Regional Weather Roundup
Issued by NWS

Home | Current Version | Previous Version | Text Only | Print | Product List | Glossary On
Versions: 1 2 3 4 5 6 7 8 9 10 11 12 13 14 15 16 17 18 19 20 21 22 23 24 25 26 27 28 29 30 31 32 33 34 35 36 37 38 39 40 41 42 43 44 45 46 47 48 49 50
000
ASUS43 KMKX 292321
RWRWI

WISCONSIN REGIONAL WEATHER ROUNDUP
NATIONAL WEATHER SERVICE MILWAUKEE/SULLIVAN WI
600 PM CDT FRI APR 29 2016

NOTE: "FAIR" INDICATES FEW OR NO CLOUDS BELOW 12,000 FEET WITH NO
SIGNIFICANT WEATHER AND/OR OBSTRUCTIONS TO VISIBILITY.

WIZ001-002-006>008-014>016-023>028-300000-
NORTHWEST WISCONSIN

CITY           SKY/WX    TMP DP  RH WIND       PRES   REMARKS
SUPERIOR ARPT  SUNNY     45  32  60 E8        30.19R
ASHLAND        SUNNY     50  32  50 E10       30.20R
HAYWARD        SUNNY     55  30  38 N17       30.14R
SIREN          MOSUNNY   59  29  32 E5        30.12R
CUMBERLAND     SUNNY     57  28  33 CALM      30.10S
RICE LAKE      CLOUDY    60  30  31 N8        30.11S
CHETEK         CLOUDY    59  38  46 SW5       30.10S
LADYSMITH      CLOUDY    58  35  42 S8        30.12R
EAU CLAIRE     SUNNY     57  38  48 SE9       30.11R
MENOMONIE      SUNNY     61  39  44 E5        30.11F
NEW RICHMOND   PTSUNNY   60  33  35 SE7       30.11S
OSCEOLA        SUNNY     60  31  33 E3        30.13S
$$

WIZ003>005-009-010-017-018-300000-
NORTH CENTRAL WISCONSIN

CITY           SKY/WX    TMP DP  RH WIND       PRES   REMARKS
MANITOWISH WTR CLOUDY    56  32  40 NW9       30.11S
ARBOR VITAE    CLOUDY    57  34  42 E3        30.10F
WOODRUFF       CLOUDY    57  34  42 E3        30.10F
RHINELANDER    SUNNY     55  29  36 N5        30.11F
EAGLE RIVER    CLOUDY    55  28  35 CALM      30.10F
LAND O LAKES   CLOUDY    55  27  34 CALM      30.12S
PHILLIPS       CLOUDY    56  35  46 SE6       30.11R
TOMAHAWK       CLOUDY    55  32  43 E3        30.11F
MEDFORD        CLOUDY    52  38  58 SW6       30.12R
MERRILL        CLOUDY    55  34  43 CALM      30.12R
$$

WIZ029-030-035-036-043>047-300000-
CENTRAL WISCONSIN

CITY           SKY/WX    TMP DP  RH WIND       PRES   REMARKS
WAUSAU         MOSUNNY   57  32  38 SE5       30.10R
MOSINEE        PTSUNNY   54  34  47 E6        30.13R
MARSHFIELD     MOSUNNY   55  35  47 CALM      30.11R
STEVENS POINT  PTSUNNY   53  34  48 E9        30.13R
WAUPACA        SUNNY     57  31  37 E6        30.13S
WAUTOMA        SUNNY     56  34  43 E8        30.12R
WISC RAPIDS    MOSUNNY   57  33  40 E7        30.12S
CAMP DOUGLAS   CLOUDY    55  42  62 SE1       30.10S
$$

WIZ011>013-019>022-031-037>040-048>050-300000-
NORTHEAST WISCONSIN

CITY           SKY/WX    TMP DP  RH WIND       PRES   REMARKS
ANTIGO         CLOUDY    53  31  42 CALM      30.13R
SHAWANO        CLOUDY    55  32  40 SE6       30.15R
OCONTO         MOSUNNY   51  27  38 E5        30.14S
STURGEON BAY   SUNNY     52  28  40 NW6       30.16S
GREEN BAY      SUNNY     55  33  43 NE9       30.14R
MANITOWOC      SUNNY     51  25  36 MISG      30.15R
APPLETON       NOT AVBL
CLINTONVILLE   PTSUNNY   54  32  43 CALM      30.14R
OSHKOSH        SUNNY     54  32  43 NE7       30.13R
$$

WIZ032>034-041-042-053>061-300000-
SOUTHWEST WISCONSIN

CITY           SKY/WX    TMP DP  RH WIND       PRES   REMARKS
LA CROSSE      CLOUDY    53  38  56 E6        30.12R
SPARTA         CLOUDY    53  38  58 CALM      30.12S
VIROQUA        CLOUDY    49  37  62 E3        30.12R
BOSCOBEL       CLOUDY    53  38  56 VRB3      30.12S
PRAIRIE DU CHI CLOUDY    51  36  57 NE6       30.11S
PLATTEVILLE    CLOUDY    49  41  73 E6        30.11S
$$

WIZ056-057-062-063-064-067-068-300000-
SOUTH CENTRAL WISCONSIN

CITY           SKY/WX    TMP DP  RH WIND       PRES   REMARKS
REEDSBURG      CLOUDY    53  37  56 SE6       30.11R
BARABOO/DELLS  CLOUDY    52  37  54 E9        30.11S
LONE ROCK      CLOUDY    52  38  58 E5        30.12S
MINERAL POINT  PTSUNNY   52  39  62 E8        30.11S
MADISON        PTSUNNY   51  38  60 CALM      30.11F
MIDDLETON      CLOUDY    51  37  59 CALM      30.12S
WATERTOWN      CLOUDY    51  37  59 E9        30.11S
MONROE         CLOUDY    46  39  76 NE6       30.10S
JANESVILLE     MOSUNNY   52  39  62 NE6       30.10S
$$

WIZ051-052-058>065-066-070>072-300000-
SOUTHEAST WISCONSIN

CITY           SKY/WX    TMP DP  RH WIND       PRES   REMARKS
MILWAUKEE      PTSUNNY   44  36  73 NE7       30.14S
WAUKESHA       CLOUDY    45  36  70 NE9       30.14R
MILWAUKEE/TIMM SUNNY     46  34  61 SE3       30.14S
RACINE         CLOUDY    44  35  70 NE9       30.16R
BURLINGTON     MOSUNNY   48  37  64 NE8       30.12S
KENOSHA        CLOUDY    47  38  71 NE9       30.13S
FOND DU LAC    SUNNY     55  33  43 NE9       30.13R
SHEBOYGAN      SUNNY     50  30  46 E9        30.15R
WEST BEND      PTSUNNY   50  32  50 E8        30.14R
JUNEAU         MOSUNNY   52  33  47 E9        30.12S
$$

LSZ147-162-300000-
LAKE SUPERIOR

STATION/POSITION TIME  TEMP    WIND        PRES    WAVE
                       AIR SEA DIR/SP/G            HT/PER
                 (UTC) (F)     (DEG/KT/KT) (MB)    (FT/S)
W MID LAKE BUOY  2250   38 37  350/  6/  8 1023.6R   1
DEVILS ISLAND    2300   38      50/  8/  9 1023.5F
SAXON HARBOR     2240   41      10/  3/  4 1022.4R
$$

LMZ867-665-643>646-300000-
LAKE MICHIGAN

STATION/POSITION TIME  TEMP    WIND        PRES    WAVE
                       AIR SEA DIR/SP/G            HT/PER
                 (UTC) (F)     (DEG/KT/KT) (MB)    (FT/S)
CHAMBERS ISLAND  2200   52     360/  1/  2 1021.0R
N MID LAKE BUOY  2250   41 39  330/  4/  4 1020.7R   0
NORTHPORT PIER   2300   49     120/  3/  3 1020.3S
ALGOMA LAKESHORE 2200           80/ 14/ 15   N/A
KEWAUNEE LAKESHO 2200   45                 1019.8R
SHEBOYGAN LAKESH 2300   42      70/  3/  3 1022.1R
PORT WASHINGTON  2200   44      90/  3/  4 1021.3
S MID LAKE BUOY  2250   40 40   10/  8/ 10 1020.7R   1/ 4
KENOSHA   LAKESH 2300   41      30/ 13/ 14 1020.3S
$$

TC  - TEMPERATURE IN CELSIUS
VSB - VISIBILITY IN STATUTE MILES
WCI - WIND CHILL INDEX
HX  - HEAT INDEX





USA.gov is the U.S. government's official web portal to all federal, state and local government web resources and services.